When you browse on this site, cookies collect data to enhance your experience and personalize the content and advertising you see.
Visit our Privacy Policy to learn more. By continuing to use the site, you agree to this use of cookies and data.
  • In Österreich
  • Länderverzeichnis
  • Für 7 Tage
  • Wassertemperatur
  • Wetterkarte
  • News
  • Widgets
  • user-avatar
    Anmelden

    Stündliche Wetter Santiago del Estero

    Heute, 28 Januar, Dienstag

    Zeit Temperatur Niederschläge Wind Luftdruck Luftfeuchtigkeit
    00:00 +27°C° 0.1 mm 2 m/S 742 mmHg 52%
    01:00 +26°C° 0.1 mm 2 m/S 742 mmHg 56%
    02:00 +26°C° 0 mm 2 m/S 741 mmHg 55%
    03:00 +26°C° 0 mm 2 m/S 741 mmHg 60%
    04:00 +25°C° 0 mm 2 m/S 741 mmHg 65%
    05:00 +25°C° 0 mm 2 m/S 740 mmHg 70%
    06:00 +26°C° 0 mm 2 m/S 741 mmHg 66%
    07:00 +27°C° 0 mm 2 m/S 741 mmHg 62%
    08:00 +28°C° 0 mm 2 m/S 741 mmHg 58%
    09:00 +31°C° 0 mm 3 m/S 741 mmHg 51%
    10:00 +34°C° 0 mm 4 m/S 740 mmHg 44%
    11:00 +36°C° 0 mm 5 m/S 740 mmHg 37%
    12:00 +37°C° 0 mm 5 m/S 739 mmHg 35%
    13:00 +37°C° 0 mm 5 m/S 738 mmHg 32%
    14:00 +39°C° 0 mm 5 m/S 737 mmHg 30%
    15:00 +39°C° 0 mm 5 m/S 736 mmHg 30%
    16:00 +39°C° 0 mm 5 m/S 736 mmHg 30%
    17:00 +39°C° 0 mm 6 m/S 735 mmHg 29%
    18:00 +37°C° 0 mm 5 m/S 735 mmHg 33%
    19:00 +35°C° 0 mm 5 m/S 735 mmHg 37%
    20:00 +33°C° 0 mm 4 m/S 735 mmHg 41%
    21:00 +33°C° 0 mm 4 m/S 735 mmHg 43%
    22:00 +32°C° 0 mm 4 m/S 736 mmHg 45%
    23:00 +30°C° 0 mm 4 m/S 736 mmHg 47%

    Morgen, 29 Januar, Mittwoch

    Zeit Temperatur Niederschläge Wind Luftdruck Luftfeuchtigkeit
    00:00 +30°C° 0 mm 4 m/S 736 mmHg 50%
    01:00 +29°C° 0 mm 3 m/S 735 mmHg 53%
    02:00 +28°C° 0 mm 2 m/S 735 mmHg 56%
    03:00 +27°C° 0 mm 2 m/S 735 mmHg 58%
    04:00 +27°C° 0 mm 2 m/S 735 mmHg 61%
    05:00 +26°C° 0 mm 2 m/S 735 mmHg 63%
    06:00 +27°C° 0 mm 2 m/S 735 mmHg 60%
    07:00 +29°C° 0 mm 2 m/S 736 mmHg 56%
    08:00 +30°C° 0 mm 3 m/S 737 mmHg 52%
    09:00 +33°C° 0.1 mm 3 m/S 737 mmHg 48%
    10:00 +35°C° 0.1 mm 3 m/S 738 mmHg 44%
    11:00 +36°C° 0.1 mm 4 m/S 738 mmHg 39%
    12:00 +36°C° 0.1 mm 4 m/S 738 mmHg 40%
    13:00 +36°C° 0.1 mm 5 m/S 738 mmHg 41%
    14:00 +36°C° 0.1 mm 5 m/S 738 mmHg 42%
    15:00 +34°C° 0.6 mm 6 m/S 738 mmHg 48%
    16:00 +33°C° 0.6 mm 7 m/S 738 mmHg 55%
    17:00 +31°C° 0.6 mm 8 m/S 738 mmHg 61%
    18:00 +29°C° 0.5 mm 6 m/S 739 mmHg 65%
    19:00 +28°C° 0.5 mm 5 m/S 739 mmHg 69%
    20:00 +26°C° 0.5 mm 4 m/S 740 mmHg 73%
    21:00 +26°C° 0 mm 3 m/S 741 mmHg 74%
    22:00 +25°C° 0 mm 3 m/S 742 mmHg 76%
    23:00 +25°C° 0 mm 3 m/S 742 mmHg 77%

    übermorgen, 30 Januar, Donnerstag

    Zeit Temperatur Niederschläge Wind Luftdruck Luftfeuchtigkeit
    00:00 +25°C° 0 mm 3 m/S 742 mmHg 77%
    01:00 +24°C° 0 mm 3 m/S 742 mmHg 77%
    02:00 +24°C° 0 mm 3 m/S 742 mmHg 77%
    03:00 +22°C° 0 mm 3 m/S 742 mmHg 76%
    04:00 +22°C° 0 mm 3 m/S 742 mmHg 76%
    05:00 +22°C° 0 mm 3 m/S 743 mmHg 75%
    06:00 +24°C° 0 mm 3 m/S 743 mmHg 69%
    07:00 +26°C° 0 mm 4 m/S 743 mmHg 63%
    08:00 +27°C° 0 mm 4 m/S 744 mmHg 57%
    09:00 +29°C° 0 mm 4 m/S 744 mmHg 48%
    10:00 +32°C° 0 mm 4 m/S 744 mmHg 39%
    11:00 +34°C° 0 mm 5 m/S 744 mmHg 31%
    12:00 +35°C° 0 mm 5 m/S 743 mmHg 27%
    13:00 +36°C° 0 mm 5 m/S 743 mmHg 24%
    14:00 +37°C° 0 mm 5 m/S 742 mmHg 21%
    15:00 +37°C° 0 mm 5 m/S 741 mmHg 22%
    16:00 +36°C° 0 mm 5 m/S 741 mmHg 23%
    17:00 +36°C° 0 mm 5 m/S 740 mmHg 24%
    18:00 +34°C° 0 mm 4 m/S 741 mmHg 31%
    19:00 +30°C° 0 mm 4 m/S 741 mmHg 38%
    20:00 +28°C° 0 mm 3 m/S 741 mmHg 45%
    21:00 +27°C° 0 mm 3 m/S 741 mmHg 49%
    22:00 +26°C° 0 mm 3 m/S 742 mmHg 53%
    23:00 +25°C° 0 mm 2 m/S 742 mmHg 57%

    31 Januar, Freitag

    Zeit Temperatur Niederschläge Wind Luftdruck Luftfeuchtigkeit
    00:00 +24°C° 0 mm 2 m/S 742 mmHg 62%
    01:00 +24°C° 0 mm 2 m/S 741 mmHg 66%
    02:00 +23°C° 0 mm 1 m/S 741 mmHg 71%
    03:00 +23°C° 0 mm 1 m/S 741 mmHg 72%
    04:00 +23°C° 0 mm 2 m/S 741 mmHg 73%
    05:00 +23°C° 0 mm 2 m/S 741 mmHg 74%
    06:00 +25°C° 0 mm 2 m/S 742 mmHg 67%
    07:00 +26°C° 0 mm 2 m/S 742 mmHg 61%
    08:00 +28°C° 0 mm 2 m/S 742 mmHg 54%
    09:00 +30°C° 0 mm 2 m/S 742 mmHg 47%
    10:00 +32°C° 0 mm 2 m/S 742 mmHg 40%
    11:00 +35°C° 0 mm 2 m/S 742 mmHg 32%
    12:00 +36°C° 0 mm 2 m/S 741 mmHg 30%
    13:00 +37°C° 0 mm 2 m/S 740 mmHg 27%
    14:00 +38°C° 0 mm 2 m/S 740 mmHg 25%
    15:00 +38°C° 0 mm 2 m/S 739 mmHg 25%
    16:00 +38°C° 0 mm 3 m/S 739 mmHg 25%
    17:00 +38°C° 0 mm 3 m/S 738 mmHg 26%
    18:00 +36°C° 0 mm 2 m/S 738 mmHg 31%
    19:00 +32°C° 0 mm 2 m/S 739 mmHg 36%
    20:00 +30°C° 0 mm 1 m/S 739 mmHg 42%
    21:00 +29°C° 0 mm 2 m/S 739 mmHg 44%
    22:00 +29°C° 0 mm 2 m/S 740 mmHg 47%
    23:00 +28°C° 0 mm 3 m/S 740 mmHg 49%

    1 Februar, Samstag

    Zeit Temperatur Niederschläge Wind Luftdruck Luftfeuchtigkeit
    00:00 +28°C° 0 mm 2 m/S 740 mmHg 53%
    01:00 +27°C° 0 mm 2 m/S 739 mmHg 56%
    02:00 +26°C° 0 mm 2 m/S 739 mmHg 60%
    03:00 +26°C° 0 mm 2 m/S 739 mmHg 62%
    04:00 +25°C° 0 mm 2 m/S 739 mmHg 64%
    05:00 +25°C° 0 mm 2 m/S 739 mmHg 66%
    06:00 +27°C° 0 mm 2 m/S 739 mmHg 61%
    07:00 +29°C° 0 mm 3 m/S 739 mmHg 56%
    08:00 +30°C° 0 mm 3 m/S 740 mmHg 51%
    09:00 +33°C° 0 mm 4 m/S 739 mmHg 44%
    10:00 +36°C° 0 mm 4 m/S 739 mmHg 38%
    11:00 +38°C° 0 mm 4 m/S 739 mmHg 32%
    12:00 +40°C° 0 mm 4 m/S 738 mmHg 30%
    13:00 +41°C° 0 mm 4 m/S 737 mmHg 27%
    14:00 +42°C° 0 mm 4 m/S 736 mmHg 25%
    15:00 +43°C° 0 mm 4 m/S 736 mmHg 24%
    16:00 +43°C° 0 mm 4 m/S 735 mmHg 24%
    17:00 +43°C° 0 mm 4 m/S 735 mmHg 23%
    18:00 +39°C° 0 mm 3 m/S 735 mmHg 27%
    19:00 +37°C° 0 mm 3 m/S 735 mmHg 30%
    20:00 +35°C° 0 mm 2 m/S 735 mmHg 33%
    21:00 +34°C° 0 mm 3 m/S 736 mmHg 36%
    22:00 +33°C° 0 mm 3 m/S 736 mmHg 39%
    23:00 +32°C° 0 mm 4 m/S 737 mmHg 42%

    2 Februar, Sonntag

    Zeit Temperatur Niederschläge Wind Luftdruck Luftfeuchtigkeit
    00:00 +32°C° 0 mm 4 m/S 737 mmHg 44%
    01:00 +32°C° 0 mm 4 m/S 736 mmHg 47%
    02:00 +30°C° 0 mm 4 m/S 736 mmHg 49%
    03:00 +30°C° 0 mm 4 m/S 736 mmHg 51%
    04:00 +29°C° 0 mm 3 m/S 736 mmHg 53%
    05:00 +29°C° 0 mm 3 m/S 736 mmHg 55%
    06:00 +32°C° 0 mm 4 m/S 737 mmHg 52%
    07:00 +33°C° 0 mm 4 m/S 737 mmHg 49%
    08:00 +35°C° 0 mm 5 m/S 737 mmHg 46%
    09:00 +37°C° 0 mm 5 m/S 737 mmHg 41%
    10:00 +40°C° 0 mm 5 m/S 737 mmHg 36%
    11:00 +43°C° 0 mm 5 m/S 737 mmHg 30%
    12:00 +43°C° 0 mm 5 m/S 737 mmHg 28%
    13:00 +45°C° 0 mm 5 m/S 736 mmHg 26%
    14:00 +46°C° 0 mm 5 m/S 736 mmHg 24%
    15:00 +45°C° 0 mm 5 m/S 735 mmHg 25%
    16:00 +44°C° 0 mm 6 m/S 735 mmHg 26%
    17:00 +44°C° 0 mm 6 m/S 735 mmHg 27%
    18:00 +41°C° 0.1 mm 5 m/S 735 mmHg 32%
    19:00 +39°C° 0.1 mm 5 m/S 736 mmHg 37%
    20:00 +36°C° 0.1 mm 4 m/S 736 mmHg 42%
    21:00 +35°C° 0 mm 3 m/S 736 mmHg 44%
    22:00 +34°C° 0 mm 3 m/S 737 mmHg 45%
    23:00 +34°C° 0 mm 3 m/S 737 mmHg 47%
    Mehr zeigen